Жовтень

Украина / Ивано-Франковская область     49°02′19″N   24°45′34″E
В апреле 2022 года жителям России запретили посещать сайт meteo.paraplan.net по решению Генеральной прокуратуры. Аудитория сайта уменьшилась в 10 раз. Владельцы сайта не видят смысла в поддержке погодного сервера в таких условиях. Сайт будет закрыт в октябре.
темп.,
°C
ветер,
м/с
пор.,
м/с
влажн.,
%
обл.,
%
осадки,
мм/ч
давл.,
гПа
погр.,
м
30 сентября, пт
пт3000:00+10зсз229767 0.0 100922
03:00+9сз229758 0.0 101020
06:00+9с1196100 0.0 101110
09:00+11вюв0191100 0.0 101280
12:00+16юв3575100 0.0 1012486
15:00+18ююв4870100 0.1 1012551
18:00+17юв3479100 0.3 101279
21:00+14ю357841 0.4 101377
1 октября, сб
сб100:00+13зюз22867 0.0 101418
03:00+11с229420 0.0 101624
06:00+10с0096100 0.0 101710
09:00+12вюв1192100 0.1 101638
12:00+13юв229099 1.2 101668
15:00+17всв227879 1.6 1014226
18:00+15св3590100 1.4 1013154
21:00+14св1195100 3.0 101114
2 октября, вс
вс200:00+14ююв1195100 4.4 101017
03:00+13з2496100 6.1 101078
06:00+12сз81489100 0.1 1011829
09:00+10сз61291100 1.4 1012640
12:00+13зсз7127682 0.3 10131255
15:00+13зсз8128184 0.7 10141131
18:00+12зсз8138156 0.5 10141031
21:00+10зсз71485100 1.3 1015689
3 октября, пн
пн300:00+10зсз7148597 0.6 1015678
03:00+10зсз7138499 0.8 1015670
06:00+10зсз6128544 0.2 1015606
09:00+10з61184100 0.5 1016705
12:00+12зсз8127841 0.7 10161108
15:00+11сз7128097 1.3 10171224
18:00+11зсз61179100 0.1 1017993
21:00+10зсз51282100 0.1 1018667
4 октября, вт
вт400:00+10зсз51176100 0.1 1017715
03:00+11з61272100 0.1 1016758
06:00+11з61371100 0.1 1016872
09:00+10зсз71277100 0.4 10161119
12:00+12з81175100 0.7 10161085
15:00+13зсз8106622 1.6 10161372
18:00+11зсз6117991 1.3 1017594
21:00+9зсз5128785 2.1 1020520